TimePST,TemperatureF,Dew PointF,Humidity,Sea Level PressureIn,VisibilityMPH,Wind Direction,Wind SpeedMPH,Gust SpeedMPH,PrecipitationIn,Events,Conditions,WindDirDegrees,DateUTC
12:15 AM,28.4,21.2,74,29.90,10.0,WSW,6.9,-,N/A,,Scattered Clouds,250,2013-03-09 08:15:00
12:35 AM,28.4,23.0,80,29.90,10.0,WSW,8.1,-,N/A,,Mostly Cloudy,240,2013-03-09 08:35:00
12:55 AM,28.4,21.2,74,29.90,10.0,WSW,10.4,16.1,N/A,,Mostly Cloudy,240,2013-03-09 08:55:00
1:15 AM,28.4,23.0,80,29.92,10.0,WSW,4.6,-,N/A,,Overcast,240,2013-03-09 09:15:00
1:35 AM,28.4,21.2,74,29.90,10.0,SW,10.4,-,N/A,,Mostly Cloudy,220,2013-03-09 09:35:00
1:55 AM,28.4,21.2,74,29.91,10.0,WSW,5.8,-,N/A,,Scattered Clouds,240,2013-03-09 09:55:00
2:15 AM,28.4,21.2,74,29.91,10.0,WSW,5.8,17.3,N/A,,Mostly Cloudy,250,2013-03-09 10:15:00
2:35 AM,28.4,21.2,74,29.90,10.0,SW,12.7,19.6,N/A,,Overcast,230,2013-03-09 10:35:00
2:55 AM,28.4,21.2,74,29.91,10.0,WSW,5.8,-,N/A,,Overcast,250,2013-03-09 10:55:00
3:15 AM,28.4,23.0,80,29.91,10.0,WSW,6.9,-,N/A,,Overcast,250,2013-03-09 11:15:00
3:35 AM,28.4,21.2,74,29.92,10.0,WSW,6.9,-,N/A,,Overcast,250,2013-03-09 11:35:00
3:55 AM,28.4,21.2,74,29.92,10.0,SW,4.6,-,N/A,,Overcast,230,2013-03-09 11:55:00
4:15 AM,28.4,21.2,74,29.93,10.0,WSW,4.6,-,N/A,,Overcast,240,2013-03-09 12:15:00
4:35 AM,28.4,21.2,74,29.94,10.0,West,4.6,-,N/A,,Overcast,260,2013-03-09 12:35:00
4:55 AM,28.4,23.0,80,29.94,10.0,SW,4.6,-,N/A,,Overcast,230,2013-03-09 12:55:00
5:15 AM,28.4,23.0,80,29.94,10.0,West,4.6,-,N/A,,Mostly Cloudy,260,2013-03-09 13:15:00
5:35 AM,26.6,21.2,80,29.94,10.0,WSW,4.6,-,N/A,,Mostly Cloudy,240,2013-03-09 13:35:00
5:55 AM,26.6,21.2,80,29.95,10.0,West,6.9,-,N/A,,Scattered Clouds,270,2013-03-09 13:55:00
6:15 AM,26.6,21.2,80,29.94,10.0,WSW,6.9,-,N/A,Snow,Light Snow,250,2013-03-09 14:15:00
6:35 AM,26.6,21.2,80,29.96,10.0,Calm,Calm,-,N/A,,Clear,0,2013-03-09 14:35:00
6:55 AM,26.6,21.2,80,29.97,10.0,WSW,3.5,-,N/A,,Scattered Clouds,250,2013-03-09 14:55:00
7:15 AM,26.6,21.2,80,29.98,10.0,WSW,5.8,-,N/A,,Scattered Clouds,250,2013-03-09 15:15:00
7:35 AM,28.4,23.0,80,29.98,10.0,SW,4.6,-,N/A,,Scattered Clouds,230,2013-03-09 15:35:00
7:55 AM,28.4,23.0,80,29.99,10.0,WSW,4.6,-,N/A,,Clear,240,2013-03-09 15:55:00
8:15 AM,30.2,23.0,75,30.00,10.0,SSW,6.9,-,N/A,,Scattered Clouds,200,2013-03-09 16:15:00
8:35 AM,30.2,23.0,75,30.00,10.0,SW,3.5,-,N/A,,Clear,220,2013-03-09 16:35:00
8:55 AM,32.0,21.2,64,30.01,10.0,SW,4.6,-,N/A,,Clear,220,2013-03-09 16:55:00
9:15 AM,32.0,21.2,64,30.02,10.0,West,5.8,-,N/A,,Clear,280,2013-03-09 17:15:00
9:35 AM,33.8,19.4,56,30.03,10.0,NW,8.1,18.4,N/A,,Clear,310,2013-03-09 17:35:00
9:55 AM,33.8,19.4,56,30.04,10.0,NNW,4.6,-,N/A,,Scattered Clouds,340,2013-03-09 17:55:00
10:15 AM,33.8,19.4,56,30.05,10.0,WNW,5.8,-,N/A,,Scattered Clouds,300,2013-03-09 18:15:00
10:35 AM,33.8,21.2,60,30.05,10.0,West,8.1,-,N/A,,Mostly Cloudy,280,2013-03-09 18:35:00
10:55 AM,33.8,21.2,60,30.05,10.0,West,4.6,-,N/A,,Mostly Cloudy,270,2013-03-09 18:55:00
11:15 AM,33.8,21.2,60,30.06,10.0,WNW,6.9,-,N/A,,Scattered Clouds,290,2013-03-09 19:15:00
11:35 AM,35.6,19.4,52,30.06,10.0,NW,6.9,-,N/A,,Mostly Cloudy,310,2013-03-09 19:35:00
11:55 AM,33.8,21.2,60,30.06,10.0,West,6.9,-,N/A,,Mostly Cloudy,280,2013-03-09 19:55:00
12:15 PM,33.8,21.2,60,30.06,10.0,NNW,4.6,-,N/A,,Mostly Cloudy,340,2013-03-09 20:15:00
12:35 PM,33.8,23.0,65,30.06,10.0,West,4.6,-,N/A,,Mostly Cloudy,270,2013-03-09 20:35:00
12:55 PM,33.8,21.2,60,30.06,10.0,West,5.8,-,N/A,,Mostly Cloudy,260,2013-03-09 20:55:00
1:15 PM,33.8,23.0,65,30.06,10.0,West,15.0,-,N/A,,Overcast,280,2013-03-09 21:15:00
1:35 PM,33.8,23.0,65,30.06,10.0,West,5.8,16.1,N/A,,Overcast,280,2013-03-09 21:35:00
1:55 PM,33.8,21.2,60,30.07,10.0,North,9.2,-,N/A,,Overcast,10,2013-03-09 21:55:00
2:15 PM,33.8,21.2,60,30.08,10.0,West,4.6,-,N/A,,Overcast,280,2013-03-09 22:15:00
2:35 PM,33.8,21.2,60,30.08,10.0,NNW,9.2,-,N/A,,Overcast,330,2013-03-09 22:35:00
2:55 PM,33.8,21.2,60,30.09,10.0,NW,9.2,17.3,N/A,,Overcast,310,2013-03-09 22:55:00
3:15 PM,33.8,23.0,65,30.09,10.0,NNE,8.1,-,N/A,,Overcast,20,2013-03-09 23:15:00
3:35 PM,35.6,23.0,60,30.09,10.0,NNW,8.1,18.4,N/A,,Overcast,330,2013-03-09 23:35:00
3:55 PM,35.6,23.0,60,30.09,10.0,WNW,9.2,-,N/A,,Mostly Cloudy,300,2013-03-09 23:55:00
4:15 PM,35.6,21.2,56,30.11,10.0,NNW,8.1,-,N/A,,Mostly Cloudy,330,2013-03-10 00:15:00
4:35 PM,35.6,21.2,56,30.11,10.0,NNW,4.6,9.2,N/A,,Overcast,330,2013-03-10 00:35:00
4:55 PM,35.6,21.2,56,30.12,10.0,NNE,3.5,-,N/A,,Mostly Cloudy,30,2013-03-10 00:55:00
5:15 PM,35.6,21.2,56,30.12,10.0,NE,8.1,-,N/A,,Mostly Cloudy,50,2013-03-10 01:15:00
5:35 PM,33.8,21.2,60,30.13,10.0,Calm,Calm,-,N/A,,Scattered Clouds,0,2013-03-10 01:35:00
5:55 PM,33.8,21.2,60,30.13,10.0,Calm,Calm,-,N/A,,Clear,0,2013-03-10 01:55:00
6:15 PM,33.8,21.2,60,30.14,10.0,NNE,3.5,-,N/A,,Clear,30,2013-03-10 02:15:00
6:35 PM,33.8,21.2,60,30.15,10.0,NNE,3.5,-,N/A,,Clear,20,2013-03-10 02:35:00
6:55 PM,33.8,21.2,60,30.16,10.0,NE,3.5,-,N/A,,Clear,50,2013-03-10 02:55:00
7:15 PM,33.8,21.2,60,30.16,10.0,NNE,3.5,-,N/A,,Clear,30,2013-03-10 03:15:00
7:35 PM,33.8,19.4,56,30.17,10.0,NE,6.9,20.7,N/A,,Clear,40,2013-03-10 03:35:00
7:55 PM,33.8,19.4,56,30.18,10.0,NNE,8.1,18.4,N/A,,Clear,20,2013-03-10 03:55:00
8:15 PM,35.6,17.6,48,30.19,10.0,NNE,10.4,19.6,N/A,,Clear,30,2013-03-10 04:15:00
8:35 PM,35.6,17.6,48,30.18,10.0,East,10.4,17.3,N/A,,Clear,80,2013-03-10 04:35:00
8:55 PM,35.6,17.6,48,30.19,10.0,NE,8.1,19.6,N/A,,Clear,40,2013-03-10 04:55:00
9:15 PM,35.6,17.6,48,30.20,10.0,NE,9.2,21.9,N/A,,Clear,40,2013-03-10 05:15:00
9:35 PM,35.6,15.8,44,30.20,10.0,NNE,13.8,24.2,N/A,,Clear,30,2013-03-10 05:35:00
9:55 PM,35.6,15.8,44,30.20,10.0,NE,15.0,27.6,N/A,,Clear,40,2013-03-10 05:55:00
10:15 PM,35.6,14.0,41,30.21,10.0,ENE,18.4,25.3,N/A,,Clear,60,2013-03-10 06:15:00
10:35 PM,35.6,14.0,41,30.21,10.0,NE,13.8,27.6,N/A,,Clear,40,2013-03-10 06:35:00
10:55 PM,35.6,14.0,41,30.21,10.0,NE,9.2,20.7,N/A,,Clear,40,2013-03-10 06:55:00
11:15 PM,35.6,14.0,41,30.22,10.0,NE,17.3,24.2,N/A,,Clear,40,2013-03-10 07:15:00
11:35 PM,35.6,15.8,44,30.23,10.0,NE,15.0,21.9,N/A,,Clear,40,2013-03-10 07:35:00
11:55 PM,33.8,15.8,48,30.23,10.0,NE,12.7,23.0,N/A,,Clear,40,2013-03-10 07:55:00